COSMOS 2491 DEB, 57551

Orbit data source: Space-Track

COSMOS 2491 DEB, 57551 is space debris in LEO originally from a launch on Wed, 25 Dec 2013 UTC launched from the Plesetsk Missile And Space Complex (PKMTR). Debris objects in space refer to the collection of defunct objects orbiting the Earth. Examples of debris include non-operational satellites, rocket bodies, and fragments generated from explosions, collisions, or faulty payload assembly.

Loading next visibility...
Identifier
57551, 2013-076AN
Orbit
LEO
Country
Flag of CISCIS
Related business
Manufacturer
TsNIIKhM
Mission
Spacecraft
Bus & Motor
Unknown
Mass
Unknown
Launch date (UTC)
2013-12-25 (12 years ago)
Launch vehicle
Unknown
Launch site
Plesetsk Missile And Space Complex (PKMTR)
Object type
Payload
Rocket body
Debris
Shape & HBR
Unknown shape, 0.1 m
Radar Cross Section
Small (<0.1 m²)

Expand to show TLE details & history
Last TLE update: 1 month ago

TLE from 1 month ago
0 COSMOS 2491 DEB
1 57551U 13076AN  26071.70257725  .00003837  00000-0  23715-1 0  9991
2 57551  82.4534 221.7925 0117821 207.8223 151.6529 12.52611482129691
Epoch: 2026-03-12T16:51Z
TLE epoch observation values (Epoch: 2026-03-12T16:51:42.674Z)
Latitude
-0.00001°
Longitude
158.51602°
Altitude
1,537.768 km
Speed
7.06 km/s
True Right ascension
14h 47m 10s
True Declination
0° 00' 00"
Sunlit
Object was in full shadow at epoch
Visualization orbit readout
Latitude
Unknown
Longitude
Unknown
Altitude
Unknown
Speed
Unknown
Apparent Right ascension
Unknown
Apparent Declination
Unknown
Sunlit
N/A
Visualization observer readout
Local Sidereal Time
04:17:09
Azimuth
Unknown
Elevation
Unknown
Doppler factor
Unknown
Orbital elements
Apogee altitude
1,543.172 km
Perigee altitude
1,358.687 km
Semi-major axis
7,829.066 km
Eccentricity
0.01178
Inclination
82.4534°
RAAN
221.7925°
Arg. of periapsis
207.8223°
True anomaly
152.28574°
Mean anomaly
151.6529°
Eccentric anomaly
151.97013°
Mean motion
3.13313 °/min
Orbital period
114.9 mins
BSTAR
0.023715
Loading maneuver chart data...
Computing Atmospheric mass density...
Loading historical data...
Loading historical data...
Loading historical data...
Loading historical data...
Loading historical data...
Loading historical data...
Loading historical data...

Documentation

Showing up to 5 results
|